COSMOS 2251 DEB, 37331

Orbit data source: Space-Track

COSMOS 2251 DEB, 37331 is space debris in LEO originally from a launch on Wed, 16 Jun 1993 UTC launched from the Plesetsk Missile And Space Complex (PKMTR). The debris from Iridium 33, an American commercial communications satellite, has been tracked extensively since its accidental collision with the defunct Russian satellite Cosmos 2251 in 2009. This event, occurring at high speed in low Earth orbit (LEO), generated thousands of pieces of space debris, significantly increasing the risk of further collisions. The Iridium 33 debris cloud has impacted space traffic management and orbital debris mitigation strategies, making it a subject of ongoing study in space situational awareness.

Loading next visibility...
Identifier
37331, 1993-036BKX
Orbit
LEO
Country
Flag of CISCIS
Related business
Manufacturer
Unknown
Mission
Spacecraft
Bus & Motor
Unknown
Mass
Unknown
Launch date (UTC)
1993-06-16 (33 years ago)
Launch vehicle
Unknown
Launch site
Plesetsk Missile And Space Complex (PKMTR)
Object type
Payload
Rocket body
Debris
Shape & HBR
Unknown shape, 0.1 m
Radar Cross Section
Small (<0.1 m²)

Expand to show TLE details & history
Last TLE update: 2 days ago

TLE from 2 days ago
0 COSMOS 2251 DEB
1 37331U 93036BKX 26261.72155828  .00000739  00000-0  25949-3 0  9994
2 37331  74.0716 275.4717 0057450 222.1021 137.5712 14.35790089887777
Epoch: 2026-09-18T17:19Z
TLE epoch observation values (Epoch: 2026-09-18T17:19:02.635Z)
Latitude
-0.00001°
Longitude
18.07034°
Altitude
805.488 km
Speed
7.435 km/s
True Right ascension
18h 21m 53s
True Declination
0° 00' 00"
Sunlit
Object was in daylight at epoch
Visualization orbit readout
Latitude
Unknown
Longitude
Unknown
Altitude
Unknown
Speed
Unknown
Apparent Right ascension
Unknown
Apparent Declination
Unknown
Sunlit
N/A
Visualization observer readout
Local Sidereal Time
12:32:25
Azimuth
Unknown
Elevation
Unknown
Doppler factor
Unknown
Orbital elements
Apogee altitude
811.129 km
Perigee altitude
728.997 km
Semi-major axis
7,148.2 km
Eccentricity
0.00575
Inclination
74.0716°
RAAN
275.4717°
Arg. of periapsis
222.1021°
True anomaly
138.01301°
Mean anomaly
137.5712°
Eccentric anomaly
137.79234°
Mean motion
3.59127 °/min
Orbital period
100.24 mins
BSTAR
0.00025949
Loading maneuver chart data...
Computing Atmospheric mass density...

Documentation

Showing up to 5 results
|